User: anonymous   Login
Location: Mentone
(34.5413°N, 85.5351°W)
Time: 15:54:13
(UTC-05:00)
Language:

ADEOS Rocket - Orbit

View from above orbital plane
View from above orbital plane
View from above satellite
View from above satellite

Ground track
Ground track

The orbit data is extracted from the following two-line orbital elements,

1 24279U 96046C   17294.86263115 -.00000010 +00000-0 +35830-4 0  9999
2 24279 098.7615 223.2067 0299758 326.1374 063.2714 13.47096898041025
Epoch (UTC): 21 October 2017 20:42:11
Eccentricity: 0.0299758
inclination: 98.7615°
perigee height: 859 km
apogee height: 1306 km
right ascension of ascending node: 223.2067°
argument of perigee: 326.1374°
revolutions per day: 13.47096898
mean anomaly at epoch: 63.2714°
orbit number at epoch: 4102

The dashed part of the orbit path shows where the satellite is in the earth's shadow,  

DLR